CZ-6A DEB

Satellite information

Favourite Embed

Satellite Type and Status

DEBRISIN ORBIT

Key statistics

Satellite CZ-6A DEB at a glance.

Uptime

1032

Days in orbit

Revolutions

≈ 14.3

Per day

Orbit

SSO

Sun Synchronous Orbit

Inclination

98.6

Latest

Satellite identification and parameters

Extended collection of information and parameters for CZ-6A DEB.

Object identification

Identified? True

Debris? True

Object name: CZ-6A DEB

International designator: 2022-151ADZ

Object number (NORAD): 56601

Object ID (CCSDS): 56601

Country: PEOPLES REPUBLIC OF CHINA (PRC)

Current information (Y/N): Y

RCS size: SMALL

Orbital parameters

Period: 100.428 minutes

Inclination: 98.6219 deg

SMA: 7156.99 km

Apoapsis: 861.082 km

Periapsis: 696.629 km

RAAN: 262.9171 deg

Eccentricy: 0.01148903

Argument of periapsis: 170.198 deg

Mean anomaly: 190.1484 deg

Mean motion: 14.33861174 rev/day

Mean motion (dot): 0.00001268 rev/day2

B* drag term: 0.00043809221 1/REarth

Two-line elements (TLE)

Creation date: Sept. 3, 2025, 10:15 a.m.

Reference frame: TEME

Reference center: EARTH

Epoch: Sept. 3, 2025, 6:25 a.m. UTC

TLE line 0: 0 CZ-6A DEB

TLE line 1: 1 56601U 22151ADZ 25246.26777614 .00001268 00000-0 43809-3 0 9992

TLE line 2: 2 56601 98.6219 262.9171 0114890 170.1980 190.1484 14.33861174123542

Live tracking on map

Real-time ground track for satellite CZ-6A DEB.

In-orbit conjunctions

A list of the most updated potential collisions computed for object CZ-6A DEB.

Target Orbit TCA Probability of collision Miss distance Type
CZ-2C R/B SSO 2025-03-04 13:01:00 0.0002134461 278.0 (m) ROCKET BODY
CZ-6 R/B LEO 2024-12-09 04:54:12 0.0005690152 108.0 (m) ROCKET BODY

Associated space launch

Chinese satellite reported for atmospheric/ocean/environmental/spatial parameter research purposes, details TBD.

CZ-6A DEB was lifted into orbit during the mission ‘Long March 6A | Yunhai 3’, on board a Long March 6A space rocket.

The launch took place on Nov. 11, 2022, 10:52 p.m. from Launch Complex 9A.

For more information about the launch, click the button.

Launch to space Long March 6A | Yunhai 3
Long March 6A | Yunhai 3

Agency: N/A

Status: Launch Successful

Launch date: Nov. 11, 2022, 10:52 p.m. UTC

Rocket: Long March 6A

Launch pad: Launch Complex 9A

Location: Taiyuan Satellite Launch Center, People's Republic of China

...

Latest news about this satellite

There are no fresh news available about this satellite. Check back as we update our databases every day.


Newsletter sign-up

Weekly statistics, charts and insights to help you stay on top of the space industry.